Lake Charles, LA

6:28 PM CDT on October 01, 2016 (GMT -0500)
Lake Charles Regional

Weather History for KLCH - November, 2014

Change the Weather History Date:

Sunday, November 23, 2014

  Actual Average Record
Temperature  
Mean Temperature 67 °F 59 °F  
Max Temperature 72 °F 69 °F 91 °F (1915)
Min Temperature 61 °F 49 °F 28 °F (1975)
Degree Days  
Heating Degree Days 0 7  
Month to date heating degree days 210 112  
Since 1 July heating degree days 215 148  
Cooling Degree Days 2 1  
Month to date cooling degree days 16 47  
Year to date cooling degree days 2685 2780  
Growing Degree Days 16 (Base 50)    
Moisture  
Dew Point 62 °F    
Average Humidity 83    
Maximum Humidity 100    
Minimum Humidity 66    
Precipitation  
Precipitation 3.37 in 0.14 in 3.37 in (2014)
Month to date precipitation 7.05 3.43  
Year to date precipitation 66.60 51.81  
Snow  
Snow 0.00 in 0.00 in 0.00 in ()
Month to date snowfall 0.0 0.0  
Since 1 July snowfall 0.0 0.0  
Since 1 September snowfall 0.0 0.0  
Snow Depth 0.00 in    
Sea Level Pressure  
Sea Level Pressure 29.66 in    
Wind  
Wind Speed 11 mph (SSW)    
Max Wind Speed 22 mph    
Max Gust Speed 32 mph    
Visibility 7 miles    
Events Fog , Rain , Thunderstorm    
T = Trace of Precipitation, MM = Missing Value Source: NWS Daily Summary

Daily Weather History Graph

Daily Weather History Graph

Search for Another Location

Airport or City:

Trip Planner

Search our weather history database for the weather conditions in past years. The results will help you decide how hot, cold, wet, or windy it might be!

Date:

Astronomy

Nov. 23, 2014 Rise Set
Actual Time 6:44 AM CST 5:13 PM CST
Civil Twilight 6:19 AM CST 5:39 PM CST
Nautical Twilight 5:49 AM CST 6:08 PM CST
Astronomical Twilight 5:21 AM CST 6:37 PM CST
Moon 7:42 AM CST (11/23) 6:36 PM CST (11/23)
Length of Visible Light 11h 20m
Length of Day
10h 28m
New Moon, 2% of the Moon is Illuminated
Nov 23
New Moon
Nov 29
First Quarter
Dec 6
Full
Dec 14
Last Quarter
Dec 21
New

Hourly Weather History & Observations

Time (CST) Temp. Dew Point Humidity Pressure Visibility Wind Dir Wind Speed Gust Speed Precip Events Conditions
12:15 AM 64.9 °F 64.0 °F 97% 29.77 in 4.0 mi SE 19.6 mph 27.6 mph 0.10 in Rain , Thunderstorm Rain
12:24 AM 64.9 °F 64.0 °F 97% 29.75 in 4.0 mi ESE 17.3 mph 24.2 mph 0.13 in Rain Heavy Rain
12:41 AM 64.9 °F 64.0 °F 97% 29.74 in 4.0 mi ESE 18.4 mph - 0.21 in Rain , Thunderstorm Heavy Rain
12:53 AM 64.9 °F 64.0 °F 97% 29.76 in 4.0 mi ESE 12.7 mph - 0.26 in Rain , Thunderstorm Heavy Rain
1:13 AM 66.0 °F 64.0 °F 93% 29.74 in 4.0 mi ESE 11.5 mph - 0.08 in Rain Heavy Rain
1:27 AM 66.0 °F 64.9 °F 96% 29.73 in 4.0 mi ESE 15.0 mph - 0.13 in Rain , Thunderstorm Rain
1:37 AM 66.0 °F 64.9 °F 96% 29.72 in 4.0 mi ESE 11.5 mph - 0.17 in Rain , Thunderstorm Rain
1:48 AM 66.2 °F 64.4 °F 94% 29.70 in 4.0 mi East 11.5 mph - 0.19 in Rain Rain
1:53 AM 66.0 °F 64.9 °F 96% 29.73 in 3.0 mi ESE 15.0 mph - 0.21 in Rain Heavy Rain
1:59 AM 66.0 °F 64.9 °F 96% 29.70 in 2.5 mi ESE 12.7 mph - 0.03 in Rain Heavy Rain
2:13 AM 66.0 °F 64.9 °F 96% 29.66 in 3.0 mi East 15.0 mph - 0.18 in Rain Heavy Rain
2:32 AM 66.0 °F 64.9 °F 96% 29.66 in 1.8 mi East 15.0 mph 23.0 mph 0.36 in Rain Heavy Rain
2:48 AM 66.2 °F 64.4 °F 94% 29.63 in 2.0 mi ENE 17.3 mph - 0.64 in Rain Heavy Rain
2:53 AM 66.0 °F 64.9 °F 96% 29.64 in 2.0 mi ENE 16.1 mph - 0.70 in Rain Heavy Rain
3:19 AM 64.9 °F 64.0 °F 97% 29.59 in 1.5 mi North 15.0 mph 23.0 mph 0.27 in Rain Heavy Rain
3:31 AM 64.9 °F 64.0 °F 97% 29.60 in 0.8 mi WNW 20.7 mph 25.3 mph 0.58 in Rain Heavy Rain
3:48 AM 64.4 °F 64.4 °F 100% 29.60 in 0.5 mi WNW 18.4 mph 26.5 mph 1.35 in Fog , Rain Heavy Rain
3:53 AM 63.0 °F 62.1 °F 97% 29.62 in 0.5 mi NW 21.9 mph 31.1 mph 1.57 in Fog , Rain Heavy Rain
4:15 AM 61.0 °F 60.1 °F 97% 29.64 in 1.2 mi WNW 13.8 mph 27.6 mph 0.53 in Rain Heavy Rain
4:19 AM 61.0 °F 60.1 °F 97% 29.63 in 1.8 mi NW 16.1 mph 26.5 mph 0.56 in Rain Heavy Rain
4:24 AM 62.1 °F 60.1 °F 93% 29.61 in 3.0 mi NW 12.7 mph 20.7 mph 0.58 in Rain Heavy Rain
4:53 AM 62.1 °F 60.1 °F 93% 29.61 in 9.0 mi North 11.5 mph - 0.64 in Rain Light Rain
5:53 AM 62.1 °F 61.0 °F 96% 29.65 in 10.0 mi SSW 4.6 mph - 0.01 in   Overcast
6:19 AM 61.0 °F 60.1 °F 97% 29.65 in 10.0 mi SSW 11.5 mph 17.3 mph N/A   Overcast
6:53 AM 61.0 °F 59.0 °F 93% 29.65 in 10.0 mi SSW 8.1 mph - N/A   Scattered Clouds
7:53 AM 62.1 °F 59.0 °F 90% 29.68 in 10.0 mi SSW 8.1 mph - N/A   Overcast
8:53 AM 63.0 °F 60.1 °F 90% 29.68 in 10.0 mi SSW 8.1 mph - N/A   Overcast
9:03 AM 63.0 °F 60.1 °F 90% 29.66 in 10.0 mi SSW 9.2 mph - N/A   Overcast
9:53 AM 66.0 °F 62.1 °F 87% 29.68 in 10.0 mi SW 15.0 mph 23.0 mph N/A   Mostly Cloudy
10:17 AM 66.9 °F 61.0 °F 81% 29.65 in 10.0 mi WSW 15.0 mph 26.5 mph N/A   Scattered Clouds
10:46 AM 66.9 °F 60.1 °F 79% 29.65 in 10.0 mi WSW 13.8 mph 25.3 mph N/A   Mostly Cloudy
10:53 AM 66.9 °F 60.1 °F 79% 29.67 in 10.0 mi WSW 15.0 mph 23.0 mph N/A   Mostly Cloudy
11:04 AM 66.9 °F 60.1 °F 79% 29.64 in 10.0 mi SW 12.7 mph 23.0 mph N/A   Scattered Clouds
11:53 AM 68.0 °F 59.0 °F 73% 29.65 in 10.0 mi WSW 18.4 mph 25.3 mph N/A   Clear
12:53 PM 70.0 °F 57.9 °F 65% 29.63 in 10.0 mi SW 17.3 mph 25.3 mph N/A   Clear
1:53 PM 71.1 °F 59.0 °F 66% 29.60 in 10.0 mi SSW 12.7 mph 21.9 mph N/A   Clear
2:53 PM 71.1 °F 59.0 °F 66% 29.60 in 10.0 mi SW 13.8 mph 25.3 mph N/A   Clear
3:53 PM 71.1 °F 63.0 °F 75% 29.60 in 10.0 mi SW 9.2 mph 17.3 mph N/A   Clear
4:53 PM 69.1 °F 62.1 °F 78% 29.60 in 10.0 mi SSW 8.1 mph - N/A   Clear
5:53 PM 66.0 °F 62.1 °F 87% 29.61 in 10.0 mi SSW 12.7 mph - N/A   Clear
6:53 PM 66.0 °F 63.0 °F 90% 29.64 in 10.0 mi SSW 11.5 mph - N/A   Clear
7:53 PM 66.9 °F 63.0 °F 87% 29.67 in 10.0 mi SW 9.2 mph 18.4 mph N/A   Clear
8:53 PM 66.0 °F 63.0 °F 90% 29.70 in 10.0 mi SW 6.9 mph - N/A   Clear
9:53 PM 64.9 °F 63.0 °F 93% 29.71 in 9.0 mi SW 5.8 mph - N/A   Clear
10:53 PM 64.0 °F 62.1 °F 93% 29.73 in 8.0 mi SW 5.8 mph - N/A   Clear
11:53 PM 63.0 °F 61.0 °F 93% 29.73 in 9.0 mi SW 5.8 mph - N/A   Clear